Temp
21 21 21 20 20 20 20 20 20 19 19 19 19 19 20 20 19 19 18 18 19 18 19 19 19 18 18 18 18 18 18 18 17 18 18 18 17 18 18 18 18 17 17
23 21 21 20 20 20 20 20 19 19 19 20 19 19 18 18 18 18 18 18 19 19 18 19 19 18 18 18 18 18 19 19 19 19 18 18 18 18 17 18 17 17 17
22 22 21 20 20 20 19 20 20 19 20 19 19 19 18 18 18 18 18 19 19 19 19 18 18 18 17 17 18 19 19 19 18 18 18 18 18 18 18 18 17 17 17
22 21 21 21 20 20 19 20 20 19 19 20 19 19 19 18 18 18 18 18 18 18 18 18 18 17 17 18 19 19 19 18 18 18 18 19 18 17 17 17 17 17 17
23 21 21 21 21 21 20 19 20 20 20 19 19 19 19 19 19 18 19 19 18 18 18 17 17 17 18 18 19 19 19 18 18 18 18 19 17 17 17 17 17 16 16
22 23 20 21 21 21 21 20 20 20 20 20 19 19 19 19 18 18 18 18 18 18 18 17 17 17 18 18 19 19 18 18 19 18 18 18 17 17 17 16 16 15 15
20 22 21 20 21 21 21 20 20 20 20 20 19 19 19 19 19 18 18 18 18 18 17 16 16 17 18 18 19 18 18 18 19 18 17 17 17 17 16 16 16 15 15
21 21 22 20 21 21 21 21 20 19 19 19 19 19 19 19 19 19 17 18 18 17 16 16 16 16 17 18 18 18 18 18 18 17 17 17 17 16 15 15 15 15 15
20 20 21 21 20 20 20 21 20 19 19 19 19 18 18 18 19 18 17 17 16 16 16 16 16 16 17 17 18 18 17 18 17 17 16 16 15 15 15 15 15 15 15
20 19 19 20 19 20 20 20 20 19 19 19 19 18 18 19 19 17 16 16 16 16 16 16 16 16 17 18 18 17 16 16 16 16 16 16 15 15 15 15 15 15 16
20 19 19 19 18 18 19 19 19 19 19 19 18 18 18 19 18 16 15 16 16 16 16 16 16 17 17 17 17 17 16 16 16 16 15 15 15 15 15 15 15 15 15
20 19 18 19 18 17 17 18 18 18 19 18 18 17 18 18 17 15 15 15 16 16 16 16 16 16 17 17 16 16 16 16 16 16 15 15 15 15 15 15 15 15 14
19 19 18 18 18 15 15 17 17 17 18 18 18 17 18 17 16 15 15 15 16 17 16 16 16 15 16 17 16 17 16 16 16 16 15 14 15 15 15 15 15 14 14
19 19 18 17 17 15 15 16 16 16 17 17 17 17 18 16 15 15 15 15 16 17 16 16 16 15 16 17 17 16 16 16 16 16 15 14 14 14 14 15 15 14 14
18 18 17 17 16 15 14 15 15 16 13 15 16 17 17 16 15 15 15 15 16 17 16 16 16 16 16 16 17 16 16 16 16 15 14 14 14 14 15 14 14 14 14
18 17 16 16 15 15 14 14 15 15 14 14 14 15 16 17 16 15 15 15 16 17 17 16 16 17 17 17 16 16 16 16 15 14 14 14 14 14 14 14 13 13 13
17 17 16 15 14 13 13 14 14 14 14 14 14 12 16 16 16 16 15 15 15 16 16 17 17 17 17 17 16 16 15 15 14 14 14 13 13 14 14 14 13 13 13
17 16 15 14 14 11 12 13 13 12 13 14 13 12 16 16 16 16 15 15 15 17 17 17 17 17 17 17 16 15 15 15 14 13 13 13 13 13 13 13 13 13 13
17 16 14 13 13 11 11 11 12 11 11 13 15 12 15 17 16 16 15 16 16 17 16 16 17 17 16 16 16 15 14 14 14 13 13 13 13 13 13 12 12 12 12
16 15 14 13 11 10 10 10 10 11 11 13 14 11 13 16 16 16 16 16 16 17 16 16 16 16 16 15 15 15 14 14 13 13 13 13 13 12 12 12 12 12 11
14 14 13 12 10 9 9 9 10 10 11 11 14 11 11 17 16 17 16 16 17 17 16 16 16 15 14 15 14 14 14 14 14 13 13 13 12 12 12 12 12 12 11
12 12 11 11 11 10 9 9 9 10 9 11 12 13 12 14 16 17 17 16 16 16 16 16 15 13 14 14 13 12 9 12 13 13 13 13 12 12 12 12 12 12 12
11 12 11 11 10 10 10 9 9 10 9 9 11 12 12 11 14 16 16 16 16 16 15 15 15 14 12 13 14 12 8 9 11 12 13 13 13 12 12 12 11 11 11
11 11 11 11 11 10 10 10 10 9 8 8 8 10 11 10 12 14 15 15 15 15 15 15 15 14 13 12 13 13 13 12 9 9 12 12 12 12 12 12 11 11 11
11 11 11 10 10 10 10 9 8 8 8 8 8 9 9 10 11 14 14 14 14 14 14 14 14 14 13 12 12 12 13 12 12 9 9 10 11 12 12 12 12 11 11
12 11 10 11 10 10 9 9 8 8 7 8 8 8 9 10 11 12 13 13 14 14 14 14 14 13 13 13 12 13 13 13 12 11 8 8 10 11 12 12 12 11 11
Height
779 779 780 782 785 787 788 790 791 793 796 797 798 799 801 802 803 805 808 809 811 813 816 817 819 820 822 823 824 825 826 827 828 829 830 831 832 832 833 834 835 835 836
779 780 781 782 784 787 789 790 792 793 795 797 799 800 802 804 806 806 808 811 812 814 816 818 820 821 823 824 825 826 827 829 830 831 832 832 833 835 835 835 836 837 837
780 779 781 782 784 786 788 790 791 793 795 797 799 801 802 804 806 808 809 812 814 815 818 819 821 822 824 825 826 828 829 831 832 833 833 834 835 836 836 837 837 838 839
782 782 781 782 783 786 787 789 791 793 795 797 799 801 803 804 806 808 810 811 814 816 818 820 822 823 824 826 827 829 831 833 834 835 836 835 835 836 837 839 840 841 841
781 783 784 782 782 784 787 789 790 792 794 796 798 800 802 803 805 807 809 811 813 815 817 820 822 824 825 826 828 830 832 834 835 836 837 837 838 839 840 841 841 843 844
780 780 782 782 781 781 784 787 789 791 793 794 797 798 800 802 804 806 809 811 814 815 817 820 822 824 826 828 829 831 833 833 834 835 838 839 841 842 843 844 844 845 845
777 780 779 780 782 782 782 784 787 788 791 792 794 797 798 801 803 806 808 811 814 816 817 820 822 823 826 828 830 832 833 834 835 837 838 840 843 844 845 846 846 846 846
776 778 778 779 780 780 781 782 785 787 789 791 793 795 797 799 802 804 808 811 813 816 817 819 822 824 825 828 830 832 833 835 836 837 839 841 844 846 847 847 848 848 848
774 775 777 776 776 778 779 779 782 785 787 789 791 794 796 797 800 804 806 809 812 815 817 819 822 824 826 828 830 833 834 836 837 838 840 843 846 848 848 849 849 849 850
772 771 773 773 773 774 776 778 779 781 784 787 789 792 795 796 798 802 805 807 811 814 816 818 821 824 825 828 831 832 834 836 838 840 842 844 847 849 849 850 851 852 852
769 768 770 770 770 771 772 774 777 778 782 785 788 790 792 794 797 800 804 806 810 813 816 818 821 823 826 828 831 833 835 837 838 841 844 846 848 850 851 851 853 853 854
765 765 765 767 767 768 768 769 772 775 778 782 784 787 789 790 795 797 802 806 809 812 816 818 820 823 825 828 830 833 835 837 840 842 845 847 849 851 852 853 854 855 856
760 761 761 763 764 766 766 767 767 771 775 777 781 782 785 788 793 796 800 805 808 812 816 818 820 822 825 828 830 833 835 837 839 843 846 849 850 852 853 854 856 857 858
755 755 757 759 760 762 765 765 766 767 771 773 775 778 780 783 789 792 797 802 806 810 814 816 818 822 825 829 831 832 834 837 839 842 847 850 851 853 855 856 857 859 861
749 750 752 754 756 757 761 764 764 763 763 768 767 771 774 777 784 789 794 799 804 809 812 815 818 821 825 827 830 832 834 837 840 843 847 850 852 854 856 857 859 861 862
745 746 748 750 752 753 755 759 760 760 763 757 763 764 767 770 777 785 790 795 801 806 811 815 817 821 824 827 828 830 834 837 841 844 848 851 853 855 856 859 860 863 864
742 743 744 745 747 749 751 753 756 757 756 753 760 766 756 763 773 780 784 791 796 802 809 814 817 820 824 827 827 831 834 838 841 845 849 852 853 855 858 859 861 863 865
741 740 741 742 744 746 747 748 750 752 750 745 752 747 745 757 769 775 780 786 793 799 805 811 814 818 823 826 828 831 835 839 842 846 850 852 854 856 857 860 862 863 865
737 737 737 739 742 744 745 744 746 748 749 751 752 752 739 752 764 769 775 781 789 795 801 807 812 815 820 825 829 833 836 839 843 846 849 852 855 857 859 861 862 864 865
734 734 735 737 739 742 744 743 744 744 748 746 741 753 748 749 760 767 769 776 785 792 798 804 809 814 818 823 828 834 838 841 844 846 848 851 854 856 859 861 863 864 866
731 733 733 735 737 739 741 741 741 740 740 737 742 752 746 746 758 763 765 771 780 788 794 800 806 810 816 820 826 835 839 843 845 847 848 850 853 855 857 860 862 864 866
732 732 733 732 733 736 738 740 740 738 738 740 737 753 745 751 753 756 762 770 777 785 793 798 802 808 814 818 823 833 842 845 845 846 848 849 852 854 856 859 861 862 865
731 731 733 733 734 734 736 738 737 737 742 741 738 745 748 755 755 755 763 769 777 783 789 795 799 805 811 816 821 826 839 841 842 845 847 848 851 852 855 857 860 862 863
728 730 731 732 731 729 732 732 732 734 739 740 738 741 740 755 760 758 766 771 777 782 789 793 798 803 808 813 820 823 824 826 836 844 845 847 849 851 853 854 856 859 860
727 728 729 728 726 726 728 728 730 732 734 739 742 730 748 754 766 763 767 773 779 783 788 792 797 802 807 812 815 820 823 824 827 833 840 843 846 848 851 852 854 857 858
725 725 725 724 723 722 724 725 726 728 733 733 733 731 748 763 769 760 766 773 780 784 788 790 796 801 806 811 815 819 820 822 824 827 835 838 842 844 847 850 850 853 856
Wind_Speed
5 14 16 15 13 12 13 15 18 19 17 16 15 15 16 17 18 20 18 17 20 19 18 17 17 17 17 16 17 18 18 18 18 18 16 16 14 14 16 14 16 17 16
5 11 16 15 14 14 14 14 17 20 19 17 16 15 15 16 18 19 18 18 20 19 18 17 17 16 16 16 17 16 18 18 18 15 15 15 15 16 15 13 16 17 18
8 8 14 13 15 18 15 15 17 19 18 18 14 14 15 16 17 17 19 20 21 18 18 17 16 15 16 16 17 18 18 19 18 16 15 14 13 14 13 15 19 21 20
19 4 13 15 14 14 15 18 17 19 19 19 18 17 17 16 17 19 21 19 20 20 19 18 17 16 15 17 17 17 18 16 14 15 14 16 17 18 21 22 21 20 18
12 17 10 14 16 16 18 17 19 19 19 18 18 20 20 19 18 18 19 21 21 20 18 19 16 15 15 17 18 18 15 9 8 13 13 16 20 21 21 20 18 17 15
8 14 15 16 16 21 19 20 20 21 20 20 19 21 21 21 19 20 21 22 21 20 17 16 15 15 16 16 17 17 11 12 16 21 20 19 17 19 18 17 17 14 13
11 10 15 11 18 20 22 23 24 22 23 23 23 24 24 22 22 20 20 20 18 18 17 15 16 17 17 16 18 13 11 15 17 19 20 18 14 12 14 13 14 13 13
10 10 13 9 17 21 21 23 26 26 24 24 24 23 23 24 21 20 19 18 16 15 15 16 17 18 19 18 16 13 9 17 22 24 24 20 14 12 12 13 12 13 14
12 14 15 13 13 20 24 22 27 27 26 26 25 24 25 23 20 20 19 17 15 15 16 17 18 18 19 20 18 13 17 20 24 23 19 16 13 11 12 13 14 15 15
10 12 12 14 10 17 22 26 27 29 27 26 26 26 25 23 22 20 18 18 17 18 18 19 20 20 21 21 18 20 24 23 22 20 17 14 14 14 15 16 17 18 18
10 12 13 14 12 13 20 25 27 31 28 27 27 28 26 23 22 21 19 20 20 18 18 21 20 20 22 22 20 22 25 23 20 17 16 17 16 17 16 18 17 18 20
12 14 12 15 14 12 16 21 27 31 30 29 32 31 30 26 25 23 20 21 20 20 19 20 21 20 24 25 22 21 23 21 20 19 19 17 17 16 16 16 17 18 19
16 15 17 14 14 10 12 16 23 26 32 32 35 35 32 28 26 23 22 24 23 23 21 22 20 21 26 27 22 23 22 21 19 14 11 16 16 16 18 18 18 16 15
19 19 19 14 14 11 8 8 15 14 29 34 39 39 35 32 29 27 27 27 27 26 24 23 20 25 25 28 24 21 21 21 19 17 16 16 16 16 16 16 15 15 15
22 21 20 17 16 13 12 12 9 15 8 6 34 43 38 36 34 32 30 29 29 28 27 25 25 26 26 24 13 26 23 21 18 21 20 17 17 17 16 15 16 15 15
19 22 20 19 16 15 12 14 18 16 17 8 16 24 40 39 39 37 35 32 30 31 28 27 29 23 22 17 21 27 25 20 20 24 21 18 16 15 14 14 13 12 12
18 21 22 21 16 16 15 15 19 22 33 37 31 44 40 43 42 39 38 37 33 34 30 29 26 23 22 18 23 27 26 24 25 24 21 19 18 17 15 15 14 13 12
16 23 24 20 17 15 16 17 20 19 24 29 25 50 42 45 43 38 39 40 36 34 34 31 25 27 24 25 25 26 25 22 19 23 21 20 19 19 18 16 14 13 13
16 25 23 18 15 14 15 16 16 13 20 19 19 22 40 48 44 40 40 41 37 35 34 34 30 28 27 27 25 23 23 21 19 21 21 19 18 17 17 16 16 15 13
14 21 22 17 13 13 13 14 14 13 16 18 12 3 31 47 45 43 41 39 39 37 37 34 32 31 31 29 27 24 22 21 20 19 19 17 15 15 13 14 14 14 14
9 19 20 16 13 13 17 15 15 14 17 11 4 5 4 43 44 40 44 36 42 37 38 36 35 33 32 33 27 21 16 15 17 18 18 17 15 14 11 13 13 12 12
4 13 17 19 17 17 15 17 10 11 13 24 14 5 4 19 35 36 40 37 40 39 37 37 38 31 33 35 19 15 3 3 10 16 17 17 15 14 12 12 12 10 11
6 8 15 13 15 16 19 19 18 10 11 20 25 25 30 12 18 31 34 36 36 38 38 38 39 33 26 25 33 8 3 4 8 10 17 17 16 17 14 12 11 10 10
11 9 12 9 13 15 21 25 23 16 12 13 26 29 31 15 18 24 28 32 34 36 36 36 37 34 34 27 30 7 6 12 3 2 12 17 18 17 16 15 15 13 13
10 13 9 5 14 16 22 24 22 18 16 18 23 30 21 21 18 26 26 28 30 32 34 34 35 34 36 28 27 12 9 9 9 4 3 8 16 19 17 16 17 16 15
9 15 18 10 9 17 18 20 22 24 22 20 19 17 16 16 21 23 23 25 28 28 32 33 34 33 34 31 28 15 11 5 7 5 3 4 13 15 17 18 20 18 17
Wind_Direction
130 159 163 163 175 167 165 165 163 156 156 153 147 143 142 140 138 138 134 131 128 126 125 122 119 113 114 112 110 109 109 109 108 108 110 111 102 91 106 106 100 92 88
61 177 171 171 178 174 179 174 172 164 164 157 158 154 148 144 146 143 140 138 132 132 131 129 124 117 115 118 116 115 112 111 108 107 109 114 108 99 113 101 99 95 90
23 173 179 176 181 186 184 182 181 173 167 158 168 162 157 155 154 153 149 148 142 137 137 133 133 130 127 126 121 118 117 116 105 98 103 106 121 113 109 105 103 98 90
35 262 190 182 185 193 190 187 187 182 177 175 176 174 174 168 166 161 158 159 151 143 142 141 138 135 140 134 129 125 125 126 119 107 100 97 108 114 105 96 89 85 84
12 21 240 196 192 192 209 195 193 190 185 187 186 181 180 174 179 174 169 154 147 148 152 147 145 147 144 139 135 133 120 121 133 140 112 105 100 97 96 93 90 83 80
356 344 13 231 204 196 204 209 201 203 199 194 194 189 188 179 170 163 159 160 159 160 164 159 159 153 151 144 142 136 116 97 109 131 119 110 99 94 92 90 88 85 78
2 336 336 256 228 213 208 208 210 208 206 199 198 191 186 178 165 162 166 170 172 174 172 165 164 160 155 151 147 141 120 128 132 130 117 112 106 100 93 94 88 81 80
329 325 326 312 243 231 224 217 213 213 208 205 202 197 184 170 173 176 176 179 181 180 171 166 164 162 157 155 151 142 130 143 138 131 121 114 113 106 99 95 92 88 88
305 301 304 298 245 242 234 227 216 216 212 209 204 194 181 176 180 185 178 179 177 167 163 163 164 162 160 157 155 139 141 144 129 125 120 117 108 107 104 102 100 97 97
300 292 294 282 254 238 235 236 224 217 219 211 203 189 182 181 183 185 174 174 168 167 166 164 162 163 162 156 148 142 141 138 133 121 111 107 111 112 110 112 107 96 103
277 271 274 282 264 244 236 234 230 224 220 211 199 190 184 183 186 184 183 173 168 175 170 160 158 170 167 154 151 154 144 136 132 123 111 113 113 115 112 117 108 103 101
242 254 246 270 274 251 245 237 231 228 218 210 199 190 185 186 187 182 182 173 172 166 171 163 172 174 169 154 150 156 146 141 133 120 119 116 119 118 118 123 118 108 101
234 228 247 243 263 263 245 245 230 224 220 211 203 192 188 185 185 182 176 174 170 169 171 173 175 179 167 161 153 151 151 148 138 135 129 126 125 123 123 117 116 111 108
235 229 231 228 249 247 259 244 232 215 220 212 202 193 191 184 185 180 176 173 173 171 174 175 172 166 163 158 161 161 158 150 141 146 135 134 133 127 122 127 127 112 109
235 211 217 231 240 239 244 246 204 187 103 53 199 194 191 184 183 180 177 176 177 175 180 170 165 161 166 167 176 171 157 147 150 146 141 140 138 137 132 125 118 120 113
222 202 211 226 232 233 228 250 247 231 244 316 331 211 188 185 183 181 176 179 179 181 178 173 165 165 175 171 147 162 152 147 152 145 146 143 140 142 134 130 125 122 120
224 207 211 222 226 228 229 242 255 265 254 255 288 315 180 180 182 180 177 179 181 180 179 181 174 178 175 164 139 150 148 149 151 149 151 149 145 143 138 133 128 125 122
237 212 214 215 228 222 226 242 253 267 249 249 284 304 176 181 185 182 178 180 182 179 179 185 180 171 170 160 140 144 148 148 152 157 157 155 154 152 146 140 135 134 130
273 219 206 210 224 224 226 236 246 242 208 204 283 294 175 182 185 179 177 179 184 182 180 182 178 172 158 152 148 137 149 151 153 162 166 168 169 167 161 154 150 146 140
270 221 208 209 215 218 215 221 228 200 211 211 347 282 194 174 180 179 176 178 182 184 180 178 173 170 159 151 142 138 137 147 162 163 168 173 177 183 180 173 167 161 150
256 210 206 205 193 210 200 200 202 201 195 155 201 253 131 172 182 183 173 176 183 183 179 176 168 160 151 155 134 124 123 145 160 162 165 170 178 176 179 182 176 174 166
193 217 214 207 207 215 207 196 202 225 187 191 158 258 249 163 174 170 173 169 174 174 173 170 169 152 152 158 144 118 101 124 176 182 188 188 183 183 182 181 178 174 186
221 214 230 224 232 223 224 213 221 229 223 170 192 189 187 197 169 166 174 173 174 172 171 171 171 161 157 160 161 141 141 191 151 192 192 193 192 194 191 189 191 191 188
212 220 221 232 253 255 223 214 220 184 183 188 157 163 164 182 188 171 175 175 174 175 173 177 177 173 165 162 171 173 174 143 157 152 201 196 200 196 196 191 195 202 204
191 204 195 316 248 241 205 193 176 162 157 159 154 136 140 174 192 170 172 173 177 179 178 178 179 181 179 178 184 172 154 154 147 139 158 178 188 201 203 205 203 207 213
199 204 202 228 227 217 203 198 179 166 159 149 154 145 164 168 181 170 176 177 183 184 182 183 184 187 190 190 192 194 170 159 166 148 124 149 174 189 204 214 206 210 214